Flag for Spain Weather past 2 weeks in Granada, Spain

Now
52 °F

Cool.


Feels Like: 52 °F
Forecast: 41 / 68 °F
Wind: No wind

Location: Granada / Aeropuerto


UV Index: 5 (Moderate)

Visibility: 19 mi


Pressure: 30.16 "Hg

Humidity: 88%

Dew point: 48 °F

Location of GranadaLocation

Historic Weather in Granada

°F

Granada temperature yesterday

Maximum temperature yesterday: 74 °F (at 5:00 PM)
Minimum temperature yesterday: 43 °F (at 8:00 AM)
Average temperature yesterday: 58 °F

Past Weeks' High & Low Weather Summary

 TemperatureHumidityPressure
High89 °F (Apr 17, 5:00 PM)99% (Apr 22, 2:00 AM)30.22 "Hg (Apr 22, 2:00 AM)
Low43 °F (Apr 23, 8:00 AM)11% (Apr 10, 5:00 PM)29.68 "Hg (Apr 21, 6:00 AM)
Average63 °F61%29.96 "Hg
* Reported Apr 9 2:00 AM — Apr 24 2:00 AM, Granada, Weather by CustomWeather, © 2014

Note: Actual official high and low records may vary slightly from our data, if they occured in-between our weather recording intervals... More about our weather records

Advertising

Historic Weather Conditions — Data for Previous 24 hours

 ConditionsComfort  
Time TempWeatherWind HumidityBarometerVisibility
2:00 AM
Apr 24
52 °FCool.No wind88%30.16 "Hg19 mi
1:00 AM53 °FCool.3 mph85%30.17 "Hg19 mi
12:00 AM54 °FCool.3 mph82%30.17 "Hg19 mi
11:00 PM
Apr 23
56 °FPassing clouds.3 mph76%30.17 "Hg12 mi
10:00 PM59 °FCool.7 mph67%30.14 "Hg19 mi
9:00 PM62 °FRefreshingly cool.7 mph58%30.11 "Hg19 mi
8:00 PM67 °FPassing clouds.13 mph48%30.08 "Hg19 mi
7:00 PM71 °FMild.14 mph44%30.06 "Hg19 mi
6:00 PM72 °FMild.13 mph40%30.05 "Hg19 mi
5:00 PM74 °FPassing clouds.12 mph36%30.05 "Hg19 mi
4:00 PM73 °FMild.9 mph34%30.07 "Hg19 mi
3:00 PM72 °FPassing clouds.9 mph42%30.09 "Hg16 mi
2:00 PM71 °FPassing clouds.6 mph44%30.10 "Hg12 mi
1:00 PM68 °FMild.1 mph52%30.13 "Hg17 mi
12:00 PM64 °FMild.1 mph64%30.16 "Hg19 mi
11:00 AM60 °FPassing clouds.2 mph67%30.17 "Hg6 mi
10:00 AM56 °FCool.No wind77%30.19 "Hg9 mi
9:00 AM51 °FFog.No wind86%30.20 "Hg5 mi
8:00 AM43 °FFog.2 mph97%30.22 "Hg5 mi
7:00 AM44 °FQuite cool.No wind97%30.21 "Hg6 mi
6:00 AM44 °FFog.1 mph98%30.20 "Hg6 mi
5:00 AM45 °FQuite cool.2 mph98%30.19 "Hg6 mi
4:00 AM45 °FQuite cool.2 mph96%30.19 "Hg9 mi
3:00 AM46 °FCool.No wind93%30.20 "Hg13 mi
Weather by CustomWeather, © 2014

See weather overview